Weather History for Chievres, Belgium

Change the Weather History Date:

Wednesday, October 3, 2012

  Actual Average Record
Temperature  
Mean Temperature 56 °F -  
Max Temperature 60 °F 53 °F 78 °F (2011)
Min Temperature 53 °F 44 °F 41 °F (1998)
Degree Days  
Heating Degree Days 8    
Growing Degree Days 6 (Base 50)    
Moisture  
Dew Point 52 °F    
Average Humidity 86    
Maximum Humidity 94    
Minimum Humidity 75    
Precipitation  
Precipitation 0.20 in - - ()
Sea Level Pressure  
Sea Level Pressure 29.83 in    
Wind  
Wind Speed 14 mph ()    
Max Wind Speed 20 mph    
Max Gust Speed 26 mph    
Visibility 7.3 miles    
Events Rain    
Averages and records for this station are not official NWS values.
T = Trace of Precipitation, MM = Missing Value Source: Averaged Metar Reports

Daily Weather History Graph

Daily Weather History Graph

Search for Another Location

Airport:

Trip Planner

Search our weather history database for the weather conditions in past years. The results will help you decide how hot, cold, wet, or windy it might be!

Date:

Astronomy

Oct. 03, 2012 Rise Set
Actual Time 7:48 AM CEST 7:17 PM CEST
Civil Twilight 7:15 AM CEST 7:50 PM CEST
Nautical Twilight 6:37 AM CEST 8:28 PM CEST
Astronomical Twilight 5:59 AM CEST 9:06 PM CEST
Moon 8:33 PM CEST (10/3) 11:22 AM CEST (10/3)
Length of Visible Light 12h 34m
Length of Day
11h 29m
Waning Gibbous, 90% of the Moon is Illuminated
Oct 3
Waning Gibbous
Oct 8
Last Quarter
Oct 15
New
Oct 22
First Quarter
Oct 29
Full

Hourly Weather History & Observations

Time (CEST) Temp. Dew Point Humidity Pressure Visibility Wind Dir Wind Speed Gust Speed Precip Events Conditions
12:25 AM 57.2 °F 50.0 °F 77% 29.89 in 6.2 mi SSW 16.1 mph - N/A   Mostly Cloudy
1:25 AM 57.2 °F 50.0 °F 77% 29.89 in 6.2 mi SSW 17.3 mph - N/A   Drizzle
2:00 AM 56 °F 51 °F 76% 29.90 in 11 mi SSW 17.9 mph - - Rain Drizzle
2:18 AM 55.4 °F 51.8 °F 88% 29.89 in 4.3 mi SSW 16.1 mph - N/A Rain Rain
2:24 AM 55.4 °F 51.8 °F 88% 29.89 in 5.0 mi SSW 15.0 mph - N/A Rain Rain
2:25 AM 55.4 °F 51.8 °F 88% 29.89 in 6.2 mi South 15.0 mph - N/A Rain Rain
3:25 AM 55.4 °F 51.8 °F 88% 29.86 in 6.2 mi South 13.8 mph - N/A   Mostly Cloudy
4:25 AM 55.4 °F 51.8 °F 88% 29.86 in 6.2 mi South 15.0 mph - N/A   Mostly Cloudy
5:00 AM 56 °F 51 °F 78% 29.86 in 19 mi SSW 15.7 mph - -   Clear
5:25 AM 55.4 °F 51.8 °F 88% 29.86 in 6.2 mi SSW 15.0 mph 26.5 mph N/A   Mostly Cloudy
6:25 AM 55.4 °F 50.0 °F 82% 29.83 in 6.2 mi SSW 17.3 mph - N/A   Scattered Clouds
7:25 AM 55.4 °F 50.0 °F 82% 29.83 in 6.2 mi SSW 17.3 mph - N/A   Scattered Clouds
8:00 AM 55 °F 51 °F 80% 29.84 in 19 mi SSW 17.9 mph - -   Partly Cloudy
8:25 AM 55.4 °F 50.0 °F 82% 29.83 in 6.2 mi SSW 17.3 mph - N/A   Mostly Cloudy
8:48 AM 55.4 °F 51.8 °F 88% 29.83 in 6.2 mi SSW 19.6 mph - N/A   Mostly Cloudy
9:25 AM 57.2 °F 51.8 °F 82% 29.83 in 6.2 mi SSW 19.6 mph - N/A Rain Light Rain Showers
10:25 AM 55.4 °F 51.8 °F 88% 29.83 in 6.2 mi SSW 19.6 mph - N/A   Mostly Cloudy
11:00 AM 56 °F 53 °F 87% 29.85 in 6 mi SSW 17.9 mph - - Rain Light Rain
11:25 AM 55.4 °F 53.6 °F 94% 29.83 in 6.2 mi SSW 13.8 mph - N/A   Mostly Cloudy
12:02 PM 59.0 °F 53.6 °F 82% 29.83 in 6.2 mi SW 16.1 mph - N/A   Mostly Cloudy
12:25 PM 59.0 °F 53.6 °F 82% 29.83 in 6.2 mi SW 17.3 mph - N/A   Mostly Cloudy
12:32 PM 59.0 °F 53.6 °F 82% 29.83 in 6.2 mi SW 18.4 mph - N/A   Mostly Cloudy
1:25 PM 59.0 °F 51.8 °F 77% 29.83 in 6.2 mi SSW 19.6 mph - N/A Rain Light Rain
2:00 PM 56 °F 50 °F 75% 29.85 in 12 mi SSW 17.9 mph - - Rain Light Rain Showers
2:25 PM 57.2 °F 50.0 °F 77% 29.83 in 6.2 mi SW 12.7 mph - N/A   Mostly Cloudy
3:25 PM 59.0 °F 53.6 °F 82% 29.83 in 6.2 mi SSW 10.4 mph - N/A   Mostly Cloudy
4:25 PM 59.0 °F 53.6 °F 82% 29.80 in 6.2 mi SSW 13.8 mph - N/A   Mostly Cloudy
5:00 PM 59 °F 54 °F 78% 29.83 in 11 mi SSW 17.9 mph - - Rain Light Rain Showers
5:25 PM 57.2 °F 53.6 °F 88% 29.83 in 6.2 mi SSW 17.3 mph - N/A Rain Light Rain Showers
5:52 PM 57.2 °F 53.6 °F 88% 29.80 in 6.2 mi SW 13.8 mph - N/A Rain Rain
6:12 PM 53.6 °F 51.8 °F 94% 29.83 in 6.2 mi West 10.4 mph - N/A Rain Rain
6:25 PM 53.6 °F 51.8 °F 94% 29.83 in 6.2 mi West 9.2 mph - N/A Rain Rain
7:25 PM 53.6 °F 51.8 °F 94% 29.80 in 6.2 mi SW 8.1 mph - N/A   Light Drizzle
7:57 PM 53.6 °F 51.8 °F 94% 29.80 in 6.2 mi South 8.1 mph - N/A Rain Light Rain Showers
8:00 PM 54 °F 52 °F 89% 29.81 in 13 mi South 6.7 mph - - Rain Light Rain Showers
8:07 PM 53.6 °F 51.8 °F 94% 29.80 in 6.2 mi South 8.1 mph - N/A Rain Light Rain Showers
8:25 PM 53.6 °F 51.8 °F 94% 29.80 in 6.2 mi SSW 9.2 mph - N/A Rain Light Rain Showers
9:25 PM 55.4 °F 51.8 °F 88% 29.77 in 6.2 mi SW 15.0 mph - N/A Rain Light Rain
10:25 PM 55.4 °F 51.8 °F 88% 29.77 in 6.2 mi SSW 12.7 mph - N/A   Mostly Cloudy
10:57 PM 55.4 °F 53.6 °F 94% 29.77 in 6.2 mi WSW 12.7 mph - N/A Rain Light Rain Showers
11:00 PM 56 °F 53 °F 87% 29.79 in 22 mi SW 15.7 mph - - Rain Light Rain Showers
11:07 PM 55.4 °F 53.6 °F 94% 29.77 in 6.2 mi WSW 11.5 mph - N/A Rain Light Rain Showers
11:25 PM 55.4 °F 53.6 °F 94% 29.77 in 6.2 mi West 8.1 mph - N/A Rain Light Rain Showers